[[{"header":{"parameterUnit":"m.s-1","parameterCategory":1,"la1":30.2991,"la2":30.254,"lo1":-89.0895,"lo2":-89.0444,"dy":0.0017,"dx":0.0017,"nx":28,"ny":28,"refTime":"2024-05-28T09:00:00:Z","depth":0,"parameterNumber":2,"parameterNumberName":"U-component_of_WINDS"},"data":[0,0,0,0,0,0,0,0,0,0,0,0,0,0,0,0,0,0,0,0,0,0,0,0,0,0,0,0,0,0,0,0,0,0,0,0,0,0,0,0,0,0,0,0,0,0,0,0,0,0,0,0,0,0,0,0,0,0,2.1806,2.1804,0,2.1668,2.1666,2.1665,2.1524,2.1522,2.152,2.1519,2.1375,2.1373,2.1371,0,0,0,0,0,0,0,0,0,0,0,0,0,2.1945,2.1943,2.1806,2.1804,2.1803,2.1668,2.1666,2.1664,2.1525,2.1522,2.152,2.1518,2.1375,2.1373,2.1371,0,0,0,0,0,0,0,0,0,0,0,0,0,2.1854,2.1943,2.1806,2.1717,2.1707,2.1668,2.1666,2.1664,2.1525,2.1522,2.1519,2.1517,2.1376,2.1373,2.137,2.1408,0,0,2.1361,2.1359,0,0,0,0,0,0,0,0,2.1859,2.1849,2.1732,2.1723,2.1712,2.161,2.1662,2.1578,2.1526,2.1594,2.1519,2.1515,2.1455,2.1446,2.1426,2.1401,2.1395,2.136,2.1359,2.1357,2.1356,0,0,0,0,0,0,0,2.1866,2.1854,2.1751,2.173,2.1718,2.1682,2.1666,2.1646,2.1542,2.1588,2.1577,2.1563,2.1449,2.1429,2.1421,2.1393,2.1361,2.1358,2.1356,2.1355,2.1388,2.139,0,0,0,0,0,0,2.1886,2.186,2.1755,2.1747,2.178,2.1682,2.1664,2.1646,2.1542,2.1524,2.1566,2.1557,2.1436,2.1425,2.1416,2.145,2.1357,2.1354,2.1353,2.1385,2.1388,2.1391,0,0,0,0,0,0,2.189,2.1878,2.1761,2.1801,2.1783,2.1683,2.1663,2.1645,2.1624,2.1525,2.1506,2.1564,2.1433,2.142,2.141,2.1443,2.1353,2.135,2.1382,2.1386,2.139,2.1521,0,0,0,0,0,0,2.1894,2.188,2.1894,2.1802,2.1781,2.1759,2.1666,2.1644,2.1619,2.1607,2.1519,2.1501,2.143,2.1415,2.1407,2.1437,2.1348,2.1378,2.1384,2.1389,2.1513,2.1529,2.1542,0,0,0,0,0,2.19,2.1937,2.1896,2.1884,2.1797,2.1762,2.175,2.1667,2.1623,2.1635,2.1571,2.1504,2.1442,2.1416,2.1405,2.1435,2.1376,2.1382,2.1388,2.1506,2.1526,2.1542,0,0,0,0,0,0,2.2036,2.1923,2.1876,2.1885,2.1834,2.1738,2.1751,2.1691,2.1651,2.1641,2.154,2.1521,2.1522,2.1477,2.1451,2.1464,2.1399,2.1403,2.1493,2.151,2.1525,2.1534,2.1345,0,0,0,0,0,2.2067,2.2048,2.1951,2.1968,2.1945,2.1853,2.1834,2.1775,2.1718,2.1695,2.1631,2.1577,2.1544,2.1525,2.149,2.1507,2.1483,2.1521,2.1536,2.1549,2.1553,2.1555,2.157,2.1412,2.1412,2.1411,0,0,2.2131,2.2067,2.2061,2.1994,2.1947,2.1928,2.1836,2.1821,2.1805,2.1693,2.1678,2.163,2.1562,2.1565,2.1563,2.1528,2.1592,2.1557,2.1567,2.1564,2.1563,2.1578,2.1591,2.1416,2.1415,2.1414,0,0,2.2237,2.2188,2.2195,2.2151,2.2081,2.202,2.2022,2.1934,2.1897,2.1882,2.1796,2.1776,2.1723,2.1678,2.1648,2.1736,2.1671,2.1727,2.1803,2.1806,2.1819,2.1829,2.1857,2.1869,2.1732,2.1732,2.1733,0,2.2324,2.2294,2.2207,2.2196,2.2168,2.2066,2.2071,2.2031,2.1954,2.1936,2.1898,2.1828,2.1776,2.1765,2.1786,2.1767,2.1763,2.1736,2.1824,2.1834,2.1842,2.1868,2.1879,2.1739,2.1739,2.1738,2.1737,0,2.2404,2.2384,2.2398,2.2326,2.2299,2.2297,2.2208,2.2191,2.2134,2.2076,2.206,2.1994,2.1942,2.1936,2.1881,2.1916,2.1896,2.1843,2.1775,2.1866,2.1888,2.1897,2.175,2.1747,2.1745,2.1743,0,0,2.2591,2.247,2.2476,2.2441,2.2356,2.2338,2.2331,2.2281,2.2267,2.2217,2.2206,2.2163,2.2112,2.2078,2.2017,2.202,2.209,2.1966,2.1962,2.1989,2.2121,2.216,2.2173,2.2048,2.2049,2.205,2.2126,0,2.268,2.266,2.2581,2.2584,2.2563,2.2466,2.2458,2.2405,2.235,2.2323,2.2262,2.2232,2.2169,2.2148,2.2147,2.2082,2.2115,2.2076,2.2034,2.2033,2.2051,2.2185,2.2226,2.2301,2.2135,2.2136,2.2137,0,2.2781,2.2738,2.2739,2.2653,2.2641,2.2636,2.2582,2.2558,2.2495,2.2454,2.2417,2.2348,2.2331,2.2271,2.2245,2.222,2.2199,2.2164,2.2165,2.2155,2.2089,2.2177,2.2323,2.2334,2.215,2.2149,2.2148,0,2.2914,2.2856,2.2848,2.2821,2.2721,2.2719,2.2678,2.2611,2.2585,2.2539,2.252,2.2472,2.2445,2.2409,2.2328,2.2291,2.2311,2.2244,2.2274,2.2277,2.2281,2.2281,2.2423,2.2272,2.2272,2.2272,2.2272,0,2.302,2.3024,2.2906,2.2901,2.2901,2.281,2.2812,2.2761,2.2703,2.2684,2.2598,2.2582,2.2478,2.245,2.2386,2.2373,2.2363,2.2328,2.231,2.2334,2.2338,2.2316,2.2308,2.2275,2.2274,2.2274,2.2273,0,2.3167,2.3089,2.3073,2.298,2.2957,2.2961,2.288,2.287,2.2811,2.2789,2.2778,2.2684,2.2646,2.2562,2.2502,2.2459,2.2461,2.2432,2.2483,2.2471,2.2506,2.2502,2.2636,2.2648,2.2493,2.2495,2.2496,0,2.3239,2.324,2.3146,2.3128,2.309,2.3062,2.3035,2.2945,2.292,2.2847,2.2845,2.2801,2.276,2.2704,2.2629,2.2582,2.2549,2.2599,2.2541,2.2564,2.2546,2.2546,2.2544,2.2611,2.2613,2.2615,2.2617,0,2.3374,2.3334,2.3299,2.325,2.3221,2.3178,2.313,2.312,2.3017,2.2994,2.2954,2.2923,2.2861,2.2817,2.2758,2.2713,2.2647,2.2636,2.264,2.2662,2.2691,2.2673,2.2514,2.2633,2.2631,2.263,2.2629,2.2628,2.3482,2.3477,2.341,2.3373,2.3328,2.3285,2.3271,2.3209,2.3175,2.3118,2.3067,2.3032,2.2965,2.288,2.2839,2.2808,2.2775,2.2782,2.2783,2.2786,2.2794,2.2698,2.2798,2.2797,2.2796,2.2796,2.2796,0,2.3609,2.3561,2.3529,2.3464,2.3435,2.3377,2.3321,2.3299,2.327,2.3214,2.3176,2.313,2.3086,2.3008,2.2957,2.2948,2.2916,2.2937,2.2935,2.2925,2.2828,2.2828,2.2963,2.2963,2.2963,2.2963,2.2963,2.2963,2.3672,2.3659,2.3612,2.3575,2.3526,2.3492,2.3464,2.3423,2.3378,2.333,2.3293,2.3243,2.3177,2.3121,2.3077,2.3055,2.3039,2.307,2.3038,2.2948,2.2932,2.2917,2.2917,2.3068,2.3068,2.3136,2.3137,2.3137]},{"header":{"parameterUnit":"m.s-1","parameterCategory":1,"la1":30.2991,"la2":30.254,"lo1":-89.0895,"lo2":-89.0444,"dy":0.0017,"dx":0.0017,"nx":28,"ny":28,"refTime":"2024-05-28T09:00:00:Z","depth":0,"parameterNumber":3,"parameterNumberName":"V-component_of_WINDS"},"data":[0,0,0,0,0,0,0,0,0,0,0,0,0,0,0,0,0,0,0,0,0,0,0,0,0,0,0,0,0,0,0,0,0,0,0,0,0,0,0,0,0,0,0,0,0,0,0,0,0,0,0,0,0,0,0,0,0,0,2.9793,2.9794,0,2.9878,2.9879,2.988,2.9862,2.9861,2.9859,2.9857,2.9942,2.9946,2.995,0,0,0,0,0,0,0,0,0,0,0,0,0,2.961,2.9614,2.9793,2.9794,2.9795,2.9878,2.9879,2.9881,2.9862,2.986,2.9859,2.9857,2.9941,2.9946,2.995,0,0,0,0,0,0,0,0,0,0,0,0,0,2.9692,2.9615,2.9793,2.9796,2.9797,2.9878,2.9879,2.9881,2.9863,2.986,2.9858,2.9856,2.994,2.9945,2.9951,3.0033,0,0,2.9968,2.997,0,0,0,0,0,0,0,0,2.9687,2.9699,2.9794,2.9796,2.9797,2.9857,2.9846,2.9932,2.9863,2.9838,2.9857,2.9855,2.9916,2.9923,2.9944,3.0037,3.004,2.9968,2.9972,2.9974,2.9976,0,0,0,0,0,0,0,2.9682,2.9695,2.9827,2.9796,2.9798,2.9792,2.9801,2.9862,2.9889,2.984,2.9839,2.9849,2.9916,2.9939,2.9946,3.0042,2.9968,2.9973,2.9977,2.9979,3.0204,3.0206,0,0,0,0,0,0,2.9675,2.969,2.9824,2.9829,2.9736,2.9797,2.9807,2.984,2.9888,2.9893,2.9851,2.9848,2.9931,2.994,2.9949,3.0047,2.9974,2.9979,2.9983,3.0201,3.0204,3.0207,0,0,0,0,0,0,2.9671,2.9687,2.982,2.976,2.9776,2.9803,2.984,2.9843,2.9866,2.9897,2.9901,2.987,2.9929,2.9941,3.0012,3.005,2.9982,2.9987,3.0198,3.0202,3.0206,3.0245,0,0,0,0,0,0,2.9666,2.9686,2.9719,2.976,2.9779,2.9883,2.9843,2.9847,2.9876,2.9873,2.9916,2.992,2.9928,3.0004,3.0018,3.0057,2.9991,3.0195,3.02,3.0205,3.0241,3.025,3.0258,0,0,0,0,0,2.966,2.9726,2.972,2.9737,2.9821,2.9885,2.9896,2.9904,2.9879,2.9912,2.9931,2.9919,3.0044,3.0011,3.0027,3.0068,3.0192,3.0199,3.0204,3.0237,3.0248,3.0258,0,0,0,0,0,0,2.9687,2.9732,2.9726,2.9808,2.9843,2.9882,2.9923,2.9916,2.9959,2.9954,2.9962,2.9971,3.0043,3.0063,3.0025,3.0149,3.0114,3.0124,3.0134,3.0145,3.0154,3.0147,2.9996,0,0,0,0,0,2.9703,2.9753,2.9788,2.9857,2.9875,2.9896,2.9925,2.9928,2.9964,2.9979,3.0004,3.0039,3.0086,3.0116,3.0161,3.0243,3.0252,3.0279,3.0288,3.0295,3.0303,3.0346,3.0358,3.0227,3.0227,3.0226,0,0,2.9736,2.9766,2.9797,2.9864,2.9891,2.9941,2.9909,2.9964,3.0,2.9987,3.0055,3.0075,3.0114,3.019,3.0225,3.0209,3.0341,3.0302,3.0308,3.0312,3.0353,3.0366,3.0377,3.0231,3.023,3.0229,0,0,2.9821,2.985,2.991,2.9938,2.998,2.9994,3.0008,3.0048,3.006,3.0129,3.012,3.0163,3.0244,3.0272,3.0297,3.0392,3.0382,3.0406,3.0452,3.0494,3.0504,3.0513,3.0546,3.0558,3.0414,3.0414,3.0414,0,2.9857,2.9933,2.9941,2.9997,3.0025,3.0016,3.0076,3.0102,3.0157,3.0177,3.0158,3.0258,3.0284,3.0366,3.0389,3.041,3.0426,3.0401,3.0502,3.0511,3.052,3.0551,3.0564,3.0417,3.0416,3.0416,3.0416,0,2.9973,3.0026,3.0069,3.0123,3.0156,3.0214,3.0229,3.0262,3.0262,3.0277,3.0346,3.0377,3.0427,3.0447,3.0448,3.0529,3.0517,3.05,3.0466,3.0535,3.0565,3.0577,3.042,3.0419,3.0419,3.0418,0,0,3.0079,3.0136,3.0151,3.0175,3.022,3.0261,3.0317,3.0367,3.0394,3.0432,3.0478,3.0547,3.0531,3.0559,3.0562,3.06,3.0671,3.0578,3.0579,3.0593,3.0761,3.0774,3.0788,3.0665,3.0667,3.0669,3.0758,0,3.0168,3.0268,3.0277,3.0366,3.0414,3.0405,3.0454,3.0486,3.0501,3.0543,3.0559,3.0607,3.0583,3.06,3.0636,3.0655,3.0705,3.0648,3.0707,3.0709,3.0697,3.0803,3.0817,3.0899,3.0769,3.0771,3.0773,0,3.0286,3.0327,3.0421,3.0459,3.0479,3.0523,3.0569,3.061,3.0646,3.0654,3.0685,3.0683,3.0739,3.0702,3.0779,3.0741,3.0765,3.0777,3.0781,3.0786,3.0745,3.0811,3.0926,3.0938,3.0791,3.079,3.0788,0,3.0352,3.0431,3.0498,3.0518,3.0564,3.0595,3.0615,3.0649,3.0678,3.0717,3.0736,3.0781,3.0806,3.0841,3.085,3.0823,3.0927,3.0891,3.0934,3.0934,3.0956,3.0954,3.1076,3.0973,3.0972,3.0972,3.0972,0,3.0451,3.0508,3.0528,3.0569,3.0633,3.0642,3.0704,3.0723,3.0752,3.0796,3.079,3.0831,3.0841,3.0884,3.0891,3.0953,3.0965,3.0972,3.0973,3.0972,3.0971,3.0988,3.0982,3.0975,3.0975,3.0974,3.0973,0,3.0536,3.0552,3.0624,3.0661,3.0671,3.0717,3.0748,3.0786,3.08,3.0855,3.0868,3.089,3.0939,3.0952,3.1011,3.1016,3.1088,3.1085,3.1077,3.1076,3.1118,3.1114,3.1254,3.1273,3.1158,3.1159,3.116,0,3.0598,3.0642,3.0684,3.0712,3.0734,3.0781,3.081,3.0819,3.085,3.0894,3.0927,3.0975,3.1015,3.1093,3.1113,3.1158,3.1155,3.1201,3.1161,3.1158,3.1154,3.1152,3.1155,3.1208,3.1209,3.121,3.1211,0,3.0705,3.071,3.0753,3.0799,3.0834,3.0871,3.0905,3.0929,3.0943,3.0977,3.1028,3.1058,3.1118,3.1166,3.1211,3.123,3.1223,3.1223,3.1235,3.1235,3.1228,3.1231,3.1096,3.122,3.1219,3.1218,3.1218,3.1218,3.078,3.0818,3.0853,3.0901,3.0928,3.096,3.0998,3.1017,3.1059,3.1109,3.1111,3.1166,3.1199,3.1258,3.128,3.1322,3.1308,3.1326,3.133,3.1335,3.1338,3.1222,3.133,3.133,3.133,3.133,3.1329,0,3.0886,3.0908,3.0952,3.1001,3.1038,3.1028,3.1065,3.1097,3.1145,3.1177,3.1216,3.1273,3.1319,3.1342,3.1388,3.1417,3.1414,3.1428,3.1426,3.143,3.1348,3.1333,3.1429,3.1429,3.1429,3.1429,3.1429,3.1429,3.0946,3.101,3.1019,3.1096,3.1117,3.1171,3.1193,3.1222,3.1248,3.1312,3.135,3.1366,3.1394,3.1441,3.1482,3.1488,3.1504,3.152,3.1524,3.1446,3.1436,3.1426,3.1412,3.1524,3.1524,3.1602,3.1603,3.1603]}]]